CZ-6A DEB, 56281

Orbit data source: Space-Track

CZ-6A DEB, 56281 is space debris in SSO originally from a launch on Fri, 11 Nov 2022 UTC launched from the Taiyaun Space Center, China (TSC). Debris objects in space refer to the collection of defunct objects orbiting the Earth. Examples of debris include non-operational satellites, rocket bodies, and fragments generated from explosions, collisions, or faulty payload assembly.

Loading next visibility...
Identifier
56281, 2022-151ACZ
Orbit
SSO
Country
Flag of CNCN / PRC
Related business
Manufacturer
SAST
Mission
Spacecraft
Bus & Motor
Unknown
Mass
Unknown
Launch date (UTC)
2022-11-11 (4 years ago)
Launch vehicle
Unknown
Launch site
Taiyaun Space Center, China (TSC)
Object type
Payload
Rocket body
Debris
Shape & HBR
Unknown shape, 0.1 m
Radar Cross Section
Small (<0.1 m²)

Expand to show TLE details & history
Last TLE update: 1 week ago

TLE from 1 week ago
0 CZ-6A DEB
1 56281U 22151ACZ 26166.94134699  .00001494  00000-0  78866-3 0  9995
2 56281  98.8272 164.7873 0055686 339.5172  20.3769 14.14596413166824
Epoch: 2026-06-15T22:35Z
TLE epoch observation values (Epoch: 2026-06-15T22:35:32.379Z)
Latitude
0.00002°
Longitude
-78.31813°
Altitude
808.91 km
Speed
7.468 km/s
True Right ascension
10h 59m 08s
True Declination
0° 00' 00"
Sunlit
Object was in daylight at epoch
Visualization orbit readout
Latitude
Unknown
Longitude
Unknown
Altitude
Unknown
Speed
Unknown
Apparent Right ascension
Unknown
Apparent Declination
Unknown
Sunlit
N/A
Visualization observer readout
Local Sidereal Time
21:40:03
Azimuth
Unknown
Elevation
Unknown
Doppler factor
Unknown
Orbital elements
Apogee altitude
881.056 km
Perigee altitude
800.657 km
Semi-major axis
7,218.994 km
Eccentricity
0.00557
Inclination
98.8272°
RAAN
164.7873°
Arg. of periapsis
339.5172°
True anomaly
20.60055°
Mean anomaly
20.3769°
Eccentric anomaly
20.48858°
Mean motion
3.53857 °/min
Orbital period
101.74 mins
BSTAR
0.00078866
Loading maneuver chart data...
Computing Atmospheric mass density...
Loading historical data...
Loading historical data...
Loading historical data...
Loading historical data...
Loading historical data...
Loading historical data...
Loading historical data...

Documentation

Showing up to 5 results
|